timestamp,wind_dir_avg,wind_spd_max_dir,wind_spd_avg,wind_spd_gust,battery_voltage,lat,long
2022-12-15 00:04:01+00:00,72.0,72.0,5.42,6.56,12.33,47.59359,-54.27349
2022-12-15 00:14:01+00:00,74.0,73.0,3.87,5.12,12.33,47.59359,-54.27349
2022-12-15 00:24:01+00:00,73.0,64.0,4.78,6.12,12.33,47.59359,-54.27349
2022-12-15 00:34:01+00:00,69.0,68.0,5.6,6.13,12.33,47.59359,-54.27349
2022-12-15 00:44:01+00:00,59.0,57.0,5.51,6.48,12.33,47.59359,-54.27349
2022-12-15 00:54:01+00:00,54.0,55.0,5.99,6.53,12.33,47.59359,-54.27349
2022-12-15 01:04:01+00:00,50.0,51.0,7.65,8.9,12.33,47.59359,-54.27349
2022-12-15 01:14:00+00:00,50.0,52.0,10.11,11.3,12.25,47.59359,-54.27349
2022-12-15 01:24:00+00:00,42.0,41.0,9.38,10.49,12.25,47.59359,-54.27349
2022-12-15 01:34:00+00:00,38.0,36.0,7.86,9.01,12.25,47.59359,-54.27349
2022-12-15 01:44:00+00:00,41.0,36.0,8.85,9.92,12.25,47.59359,-54.27349
2022-12-15 01:54:00+00:00,46.0,49.0,9.14,10.12,12.25,47.59359,-54.27349
2022-12-15 02:04:00+00:00,49.0,47.0,9.4,10.26,12.25,47.59359,-54.27349
2022-12-15 02:14:00+00:00,48.0,50.0,9.82,11.28,12.17,47.59359,-54.27349
2022-12-15 02:24:00+00:00,47.0,46.0,10.96,12.64,12.17,47.59359,-54.27349
2022-12-15 02:34:00+00:00,44.0,38.0,10.1,12.04,12.17,47.59359,-54.27349
2022-12-15 02:44:00+00:00,43.0,43.0,10.82,12.55,12.17,47.59359,-54.27349
2022-12-15 02:54:00+00:00,43.0,39.0,10.15,11.3,12.17,47.59359,-54.27349
2022-12-15 03:04:00+00:00,45.0,44.0,10.09,11.47,12.17,47.59359,-54.27349
2022-12-15 03:14:00+00:00,47.0,51.0,10.01,11.34,12.17,47.59359,-54.27349
2022-12-15 03:24:00+00:00,45.0,44.0,10.78,12.68,12.17,47.59359,-54.27349
2022-12-15 03:34:00+00:00,44.0,45.0,10.76,11.43,12.17,47.59359,-54.27349
2022-12-15 03:44:00+00:00,42.0,41.0,10.88,11.89,12.17,47.59359,-54.27349
2022-12-15 03:54:00+00:00,41.0,39.0,10.26,11.47,12.17,47.59359,-54.27349
2022-12-15 04:04:00+00:00,44.0,45.0,11.36,12.19,12.17,47.59359,-54.27349
2022-12-15 04:14:00+00:00,45.0,47.0,10.76,12.36,12.09,47.59359,-54.27349
2022-12-15 04:24:00+00:00,46.0,46.0,10.99,12.33,12.09,47.59359,-54.27349
2022-12-15 04:34:00+00:00,46.0,46.0,10.69,12.46,12.09,47.59359,-54.27349
2022-12-15 04:44:00+00:00,47.0,45.0,11.95,13.28,12.09,47.59359,-54.27349
2022-12-15 04:54:00+00:00,45.0,42.0,10.7,12.01,12.09,47.59359,-54.27349
2022-12-15 05:04:00+00:00,47.0,45.0,11.22,12.94,12.09,47.59359,-54.27349
2022-12-15 05:14:00+00:00,35.0,34.0,10.29,11.42,12.09,47.59359,-54.27349
2022-12-15 05:24:00+00:00,32.0,29.0,10.95,13.05,12.09,47.59359,-54.27349
2022-12-15 05:34:00+00:00,33.0,33.0,10.71,12.37,12.09,47.59359,-54.27349
2022-12-15 05:44:00+00:00,33.0,40.0,11.89,13.12,12.09,47.59359,-54.27349
2022-12-15 05:54:00+00:00,32.0,29.0,11.74,13.17,12.09,47.59359,-54.27349
2022-12-15 06:04:00+00:00,34.0,31.0,11.35,12.7,12.09,47.59359,-54.27349
2022-12-15 06:14:00+00:00,37.0,36.0,13.07,14.17,12.09,47.59359,-54.27349
2022-12-15 06:24:00+00:00,35.0,36.0,11.78,12.87,12.09,47.59359,-54.27349
2022-12-15 06:34:00+00:00,31.0,33.0,12.44,14.47,12.09,47.59359,-54.27349
2022-12-15 06:44:00+00:00,36.0,36.0,12.7,14.09,12.09,47.59359,-54.27349
2022-12-15 06:54:00+00:00,38.0,36.0,11.9,13.88,12.09,47.59359,-54.27349
2022-12-15 07:04:00+00:00,39.0,37.0,11.62,13.52,12.09,47.59359,-54.27349
2022-12-15 07:14:00+00:00,39.0,44.0,11.35,12.58,12.09,47.59359,-54.27349
2022-12-15 07:24:00+00:00,37.0,38.0,11.55,13.31,12.09,47.59359,-54.27349
2022-12-15 07:34:00+00:00,38.0,39.0,11.91,13.95,12.09,47.59359,-54.27349
2022-12-15 07:44:00+00:00,38.0,33.0,13.4,14.79,12.09,47.59359,-54.27349
2022-12-15 07:54:00+00:00,38.0,35.0,13.1,14.6,12.09,47.59359,-54.27349
2022-12-15 08:04:00+00:00,38.0,36.0,14.27,16.53,12.09,47.59359,-54.27349
2022-12-15 08:14:00+00:00,36.0,39.0,14.23,16.21,12.09,47.59359,-54.27349
2022-12-15 08:24:00+00:00,37.0,36.0,14.08,16.63,12.09,47.59359,-54.27349
2022-12-15 08:34:00+00:00,36.0,43.0,13.74,16.54,12.09,47.59359,-54.27349
2022-12-15 08:44:00+00:00,36.0,38.0,14.53,16.26,12.09,47.59359,-54.27349
2022-12-15 08:54:00+00:00,34.0,35.0,15.44,17.34,12.09,47.59359,-54.27349
2022-12-15 09:04:00+00:00,36.0,39.0,15.04,17.24,12.09,47.59359,-54.27349
2022-12-15 09:14:01+00:00,36.0,35.0,15.0,17.27,12.09,47.59359,-54.27349
2022-12-15 09:24:01+00:00,38.0,32.0,13.38,17.01,12.09,47.59359,-54.27349
2022-12-15 09:34:01+00:00,36.0,38.0,14.15,16.03,12.09,47.59359,-54.27349
2022-12-15 09:44:01+00:00,36.0,37.0,14.16,16.66,12.09,47.59359,-54.27349
2022-12-15 09:54:01+00:00,36.0,32.0,13.34,15.49,12.09,47.59359,-54.27349
2022-12-15 10:04:01+00:00,36.0,41.0,14.54,17.93,12.09,47.59359,-54.27349
2022-12-15 10:14:00+00:00,36.0,32.0,14.12,16.17,12.09,47.59359,-54.27349
2022-12-15 10:24:00+00:00,36.0,37.0,15.13,17.01,12.09,47.59359,-54.27349
2022-12-15 10:34:00+00:00,33.0,34.0,16.0,17.9,12.09,47.59359,-54.27349
2022-12-15 10:44:00+00:00,35.0,40.0,12.73,15.71,12.09,47.59359,-54.27349
2022-12-15 10:54:00+00:00,36.0,34.0,13.62,15.91,12.09,47.59359,-54.27349
2022-12-15 11:04:00+00:00,32.0,35.0,16.58,19.27,12.09,47.59359,-54.27349
2022-12-15 11:14:00+00:00,30.0,28.0,16.06,18.43,12.09,47.59359,-54.27349
2022-12-15 11:24:00+00:00,32.0,28.0,16.29,19.04,12.09,47.59359,-54.27349
2022-12-15 11:34:00+00:00,31.0,37.0,13.18,15.98,12.09,47.59359,-54.27349
2022-12-15 11:44:00+00:00,31.0,31.0,15.36,17.48,12.09,47.59359,-54.27349
2022-12-15 11:54:00+00:00,31.0,28.0,15.89,18.92,12.09,47.59359,-54.27349
2022-12-15 12:04:00+00:00,30.0,26.0,14.09,17.94,12.09,47.59359,-54.27349
2022-12-15 12:14:00+00:00,29.0,30.0,16.16,18.52,12.09,47.59359,-54.27349
2022-12-15 12:24:00+00:00,32.0,37.0,16.49,19.65,12.09,47.59359,-54.27349
2022-12-15 12:34:00+00:00,32.0,33.0,17.16,20.04,12.09,47.59359,-54.27349
2022-12-15 12:44:00+00:00,31.0,32.0,16.74,18.79,12.09,47.59359,-54.27349
2022-12-15 12:54:00+00:00,30.0,23.0,17.5,19.66,12.09,47.59359,-54.27349
2022-12-15 13:04:00+00:00,33.0,30.0,16.08,19.21,12.09,47.59359,-54.27349
2022-12-15 13:14:00+00:00,33.0,35.0,17.08,19.12,12.17,47.59359,-54.27349
2022-12-15 13:24:00+00:00,31.0,38.0,19.38,22.68,12.17,47.59359,-54.27349
2022-12-15 13:34:00+00:00,33.0,40.0,17.59,20.29,12.17,47.59359,-54.27349
2022-12-15 13:44:00+00:00,34.0,36.0,16.75,19.24,12.17,47.59359,-54.27349
2022-12-15 13:54:00+00:00,33.0,42.0,17.51,21.14,12.17,47.59359,-54.27349
2022-12-15 14:04:00+00:00,32.0,39.0,17.48,21.5,12.17,47.59359,-54.27349
2022-12-15 14:14:01+00:00,31.0,33.0,17.43,18.79,12.41,47.59359,-54.27349
2022-12-15 14:24:01+00:00,30.0,26.0,18.45,23.17,12.41,47.59359,-54.27349
2022-12-15 14:34:01+00:00,32.0,28.0,16.37,18.96,12.41,47.59359,-54.27349
2022-12-15 14:44:01+00:00,33.0,36.0,18.03,20.6,12.41,47.59359,-54.27349
2022-12-15 14:54:01+00:00,33.0,40.0,19.6,22.96,12.41,47.59359,-54.27349
2022-12-15 15:04:01+00:00,32.0,34.0,18.06,20.73,12.41,47.59359,-54.27349
2022-12-15 15:14:00+00:00,33.0,37.0,17.01,20.18,12.57,47.59359,-54.27349
2022-12-15 15:24:00+00:00,34.0,41.0,17.37,21.46,12.57,47.59359,-54.27349
2022-12-15 15:34:00+00:00,34.0,40.0,19.02,22.2,12.57,47.59359,-54.27349
2022-12-15 15:44:00+00:00,34.0,38.0,18.2,20.96,12.57,47.59359,-54.27349
2022-12-15 15:54:00+00:00,38.0,41.0,18.27,22.43,12.57,47.59359,-54.27349
2022-12-15 16:04:00+00:00,40.0,37.0,16.18,20.42,12.57,47.59359,-54.27349
2022-12-15 16:14:00+00:00,42.0,47.0,15.81,18.27,12.65,47.59359,-54.27349
2022-12-15 16:24:00+00:00,45.0,46.0,16.56,20.47,12.65,47.59359,-54.27349
2022-12-15 16:34:00+00:00,47.0,44.0,17.51,21.82,12.65,47.59359,-54.27349
2022-12-15 16:44:00+00:00,47.0,47.0,18.14,22.82,12.65,47.59359,-54.27349
2022-12-15 16:54:00+00:00,49.0,46.0,16.77,20.94,12.65,47.59359,-54.27349
2022-12-15 17:04:00+00:00,47.0,44.0,19.09,22.55,12.65,47.59359,-54.27349
2022-12-15 17:14:00+00:00,53.0,59.0,18.22,21.71,12.65,47.59359,-54.27349
2022-12-15 17:24:00+00:00,56.0,61.0,17.24,21.59,12.65,47.59359,-54.27349
2022-12-15 17:34:00+00:00,56.0,53.0,17.71,21.05,12.65,47.59359,-54.27349
2022-12-15 17:44:00+00:00,56.0,56.0,18.59,21.98,12.65,47.59359,-54.27349
2022-12-15 17:54:00+00:00,52.0,53.0,15.54,19.58,12.65,47.59359,-54.27349
2022-12-15 18:04:00+00:00,54.0,46.0,17.29,21.89,12.65,47.59359,-54.27349
2022-12-15 18:14:01+00:00,51.0,53.0,15.82,19.21,12.65,47.59359,-54.27349
2022-12-15 18:24:01+00:00,55.0,61.0,16.97,20.47,12.65,47.59359,-54.27349
2022-12-15 18:34:01+00:00,52.0,50.0,16.3,19.31,12.65,47.59359,-54.27349
2022-12-15 18:44:01+00:00,52.0,50.0,16.71,19.27,12.65,47.59359,-54.27349
2022-12-15 18:54:01+00:00,52.0,49.0,14.55,19.16,12.65,47.59359,-54.27349
2022-12-15 19:04:01+00:00,53.0,55.0,15.09,17.96,12.65,47.59359,-54.27349
2022-12-15 19:14:01+00:00,50.0,46.0,15.86,19.88,12.41,47.59359,-54.27349
2022-12-15 19:24:01+00:00,50.0,50.0,16.36,19.6,12.41,47.59359,-54.27349
2022-12-15 19:34:01+00:00,49.0,48.0,16.64,19.3,12.41,47.59359,-54.27349
2022-12-15 19:44:01+00:00,47.0,48.0,15.3,18.61,12.41,47.59359,-54.27349
2022-12-15 19:54:01+00:00,50.0,48.0,16.19,19.63,12.41,47.59359,-54.27349
2022-12-15 20:04:01+00:00,47.0,49.0,15.11,16.94,12.41,47.59359,-54.27349
2022-12-15 20:14:00+00:00,44.0,44.0,16.67,19.75,12.25,47.59359,-54.27349
2022-12-15 20:24:00+00:00,47.0,46.0,17.25,19.62,12.25,47.59359,-54.27349
2022-12-15 20:34:00+00:00,50.0,52.0,18.39,21.39,12.25,47.59359,-54.27349
2022-12-15 20:44:00+00:00,48.0,45.0,16.89,19.73,12.25,47.59359,-54.27349
2022-12-15 20:54:00+00:00,46.0,48.0,15.11,18.37,12.25,47.59359,-54.27349
2022-12-15 21:04:00+00:00,47.0,51.0,14.7,16.8,12.25,47.59359,-54.27349
2022-12-15 21:14:00+00:00,38.0,34.0,13.37,15.23,12.17,47.59359,-54.27349
2022-12-15 21:24:00+00:00,38.0,36.0,12.95,14.99,12.17,47.59359,-54.27349
2022-12-15 21:34:00+00:00,33.0,30.0,14.83,16.57,12.17,47.59359,-54.27349
2022-12-15 21:44:00+00:00,32.0,34.0,15.78,18.53,12.17,47.59359,-54.27349
2022-12-15 21:54:00+00:00,31.0,31.0,15.61,16.94,12.17,47.59359,-54.27349
2022-12-15 22:04:00+00:00,33.0,44.0,14.54,17.36,12.17,47.59359,-54.27349
2022-12-15 22:14:01+00:00,32.0,29.0,14.76,17.25,12.17,47.59359,-54.27349
2022-12-15 22:24:01+00:00,34.0,33.0,13.75,16.29,12.17,47.59359,-54.27349
2022-12-15 22:34:01+00:00,35.0,32.0,14.75,16.02,12.17,47.59359,-54.27349
2022-12-15 22:44:01+00:00,33.0,31.0,14.73,16.46,12.17,47.59359,-54.27349
2022-12-15 22:54:01+00:00,35.0,29.0,14.2,16.73,12.17,47.59359,-54.27349
2022-12-15 23:04:01+00:00,33.0,31.0,14.27,16.22,12.17,47.59359,-54.27349
2022-12-15 23:14:00+00:00,34.0,32.0,14.28,16.04,12.09,47.59359,-54.27349
2022-12-15 23:24:00+00:00,32.0,30.0,14.72,16.61,12.09,47.59359,-54.27349
2022-12-15 23:34:00+00:00,31.0,33.0,15.42,16.96,12.09,47.59359,-54.27349
2022-12-15 23:44:00+00:00,33.0,31.0,14.42,15.67,12.09,47.59359,-54.27349
2022-12-15 23:54:00+00:00,33.0,39.0,14.35,16.83,12.09,47.59359,-54.27349
